Precipitable_Water
1.21 0.97 0.83 0.90 0.95 0.96 0.92 0.88 0.85 0.97 1.09 0.94 0.84 0.84 0.87 0.90 0.96 0.94 1.02 1.02 1.02 1.09 1.23 1.28 1.32 1.40 1.42 1.45 1.45 1.47 1.48 1.54 1.54 1.55 1.53 1.50 1.48 1.70 1.81 1.96 2.15 1.95 1.77 1.70
0.94 0.81 0.96 1.02 0.99 0.93 0.92 0.86 0.84 0.97 1.04 0.90 0.81 0.79 0.87 0.89 0.91 0.98 0.98 1.02 1.03 1.05 1.09 1.18 1.28 1.31 1.32 1.33 1.37 1.39 1.44 1.49 1.52 1.51 1.53 1.55 1.59 1.70 1.78 1.89 1.98 1.91 1.77 1.70
0.85 0.87 1.01 0.92 0.86 0.82 0.86 0.83 0.84 0.80 0.94 0.90 0.79 0.67 0.70 0.83 0.92 1.01 1.00 1.01 1.04 1.06 1.06 1.12 1.19 1.22 1.27 1.28 1.32 1.35 1.42 1.46 1.49 1.49 1.48 1.54 1.63 1.67 1.69 1.78 1.86 1.89 1.86 1.83
0.87 0.94 0.86 0.82 0.77 0.83 0.75 0.92 0.89 0.85 0.74 0.60 0.80 0.50 0.68 0.75 0.74 0.85 0.97 1.01 1.03 1.04 1.10 1.19 1.22 1.16 1.20 1.25 1.31 1.33 1.35 1.37 1.45 1.49 1.36 1.37 1.39 1.44 1.67 1.76 1.81 1.92 2.01 2.01
0.80 0.81 0.78 0.74 0.74 0.86 0.77 0.91 0.88 0.81 0.76 0.71 0.67 0.56 0.63 0.78 0.72 0.74 0.83 0.95 1.03 1.09 1.13 1.13 1.16 1.14 1.26 1.31 1.31 1.34 1.37 1.36 1.41 1.44 1.36 1.33 1.37 1.49 1.60 1.74 1.87 1.92 2.01 2.15
0.83 0.94 0.85 0.80 0.86 0.86 0.92 0.86 0.81 0.78 0.72 0.53 0.62 0.58 0.53 0.60 0.67 0.81 0.88 0.92 1.00 1.06 1.12 1.17 1.21 1.22 1.28 1.35 1.37 1.41 1.43 1.44 1.48 1.47 1.39 1.35 1.36 1.41 1.48 1.57 1.60 1.69 1.81 1.93
0.72 0.73 0.79 0.85 0.76 0.88 0.85 0.74 0.55 0.48 0.48 0.45 0.68 0.59 0.58 0.71 0.80 0.82 0.93 0.99 1.03 1.08 1.12 1.12 1.13 1.15 1.25 1.31 1.42 1.47 1.48 1.46 1.53 1.52 1.49 1.40 1.41 1.42 1.40 1.46 1.45 1.50 1.57 1.73
0.49 0.52 0.65 0.79 0.73 0.68 0.73 0.69 0.57 0.44 0.42 0.45 0.65 0.48 0.56 0.78 0.83 0.90 1.00 1.15 1.17 1.17 1.17 1.13 1.14 1.12 1.23 1.32 1.41 1.46 1.48 1.49 1.53 1.55 1.54 1.54 1.51 1.47 1.46 1.45 1.40 1.42 1.48 1.52
0.40 0.54 0.67 0.72 0.77 0.75 0.68 0.64 0.74 0.61 0.60 0.49 0.50 0.57 0.67 0.75 0.79 0.88 0.86 0.97 1.10 1.20 1.24 1.23 1.27 1.20 1.28 1.34 1.38 1.44 1.45 1.51 1.49 1.49 1.50 1.52 1.52 1.49 1.45 1.49 1.51 1.49 1.53 1.59
0.40 0.42 0.60 0.65 0.70 0.73 0.70 0.77 0.57 0.59 0.43 0.39 0.43 0.45 0.47 0.63 0.74 0.76 0.79 0.87 1.00 1.10 1.24 1.34 1.35 1.34 1.30 1.37 1.42 1.44 1.47 1.44 1.48 1.48 1.45 1.43 1.45 1.51 1.50 1.51 1.49 1.54 1.64 1.74
0.36 0.39 0.48 0.53 0.52 0.50 0.57 0.61 0.61 0.61 0.58 0.44 0.38 0.41 0.63 0.67 0.78 0.71 0.76 0.85 0.98 1.10 1.24 1.36 1.44 1.50 1.46 1.43 1.45 1.45 1.43 1.44 1.41 1.42 1.38 1.39 1.42 1.49 1.58 1.60 1.67 1.73 1.80 1.87
0.38 0.31 0.34 0.42 0.56 0.55 0.57 0.55 0.53 0.49 0.48 0.54 0.49 0.45 0.70 0.79 0.84 0.83 0.78 0.87 0.97 1.11 1.37 1.49 1.56 1.58 1.58 1.55 1.58 1.56 1.46 1.41 1.43 1.42 1.35 1.35 1.41 1.49 1.54 1.65 1.77 1.89 1.92 2.02
0.40 0.31 0.30 0.39 0.44 0.49 0.45 0.49 0.53 0.55 0.56 0.48 0.41 0.42 0.72 0.80 0.82 0.87 0.80 0.87 0.99 1.12 1.26 1.47 1.51 1.54 1.59 1.62 1.69 1.61 1.56 1.50 1.46 1.50 1.48 1.57 1.61 1.62 1.67 1.76 1.87 1.97 2.04 2.11
0.50 0.37 0.30 0.34 0.37 0.39 0.38 0.42 0.46 0.48 0.45 0.46 0.44 0.48 0.60 0.71 0.77 0.83 0.81 0.86 0.95 1.04 1.19 1.29 1.41 1.49 1.60 1.59 1.58 1.64 1.70 1.72 1.69 1.68 1.72 1.68 1.77 1.81 1.80 1.88 2.00 2.00 1.98 1.98
0.50 0.37 0.35 0.34 0.39 0.38 0.38 0.39 0.45 0.46 0.48 0.44 0.47 0.48 0.60 0.75 0.81 0.82 0.80 0.83 0.87 0.88 1.01 1.14 1.26 1.41 1.51 1.57 1.67 1.74 1.80 1.82 1.74 1.66 1.63 1.70 1.88 1.91 1.91 1.92 1.95 1.81 2.00 2.05
0.49 0.41 0.40 0.35 0.39 0.39 0.36 0.44 0.46 0.45 0.47 0.49 0.49 0.47 0.64 0.84 0.98 0.87 0.78 0.79 0.82 0.86 0.88 1.03 1.14 1.16 1.26 1.37 1.43 1.52 1.68 1.80 1.84 1.72 1.70 1.88 1.92 1.94 1.94 1.98 1.99 2.00 1.97 1.98
0.46 0.42 0.41 0.32 0.39 0.40 0.34 0.39 0.43 0.45 0.49 0.49 0.44 0.52 0.67 0.80 0.91 0.86 0.81 0.80 0.83 0.91 1.02 1.08 1.19 1.13 1.08 1.03 1.07 1.08 1.20 1.38 1.55 1.67 1.78 1.81 1.85 1.83 1.86 1.90 1.92 1.90 1.77 1.59
0.52 0.49 0.48 0.40 0.41 0.30 0.37 0.51 0.51 0.47 0.47 0.58 0.61 0.66 0.74 0.86 1.00 1.03 1.02 0.92 0.99 1.05 1.13 1.05 1.06 1.00 0.98 1.08 1.11 1.12 1.19 1.23 1.30 1.41 1.52 1.59 1.64 1.57 1.64 1.65 1.58 1.46 1.26 1.18
0.60 0.54 0.47 0.41 0.40 0.44 0.44 0.46 0.45 0.48 0.43 0.62 0.65 0.77 0.87 1.04 1.07 1.09 1.20 1.18 1.20 1.09 1.05 1.05 1.01 0.96 0.95 1.02 1.10 1.08 1.08 1.16 1.22 1.29 1.35 1.43 1.47 1.39 1.33 1.20 1.11 1.15 1.21 1.18
0.57 0.58 0.49 0.47 0.36 0.32 0.39 0.48 0.63 0.65 0.40 0.69 0.78 0.84 0.89 1.01 0.80 0.94 1.25 1.32 1.16 1.11 1.10 1.08 1.01 1.01 0.92 1.01 1.09 1.02 0.98 0.96 1.05 1.16 1.16 1.17 1.13 1.07 1.11 1.19 1.19 1.21 1.19 1.17
0.45 0.50 0.44 0.46 0.42 0.39 0.45 0.57 0.74 0.46 0.53 0.84 0.93 0.94 0.98 0.87 0.99 1.15 1.38 1.24 1.10 1.06 1.11 1.12 1.05 1.00 0.89 1.02 1.04 0.97 0.97 0.96 1.05 1.10 1.14 1.18 1.22 1.20 1.20 1.19 1.19 1.20 1.18 1.19
0.41 0.44 0.43 0.48 0.43 0.33 0.56 0.67 0.55 0.62 0.83 0.91 0.99 1.01 1.03 1.13 1.19 1.28 1.28 1.13 1.08 1.16 1.21 1.19 1.17 1.08 0.98 0.97 0.90 0.88 0.92 1.10 1.20 1.14 1.15 1.16 1.17 1.19 1.22 1.21 1.23 1.20 1.20 1.19
0.37 0.45 0.46 0.51 0.46 0.58 0.62 0.61 0.78 0.81 0.84 0.90 0.89 1.01 1.06 1.05 1.17 1.27 1.17 1.13 1.22 1.25 1.25 1.31 1.22 1.12 1.00 0.93 0.92 0.91 1.00 1.12 1.14 1.12 1.12 1.14 1.16 1.19 1.22 1.19 1.21 1.20 1.19 1.17
0.49 0.58 0.49 0.54 0.57 0.55 0.61 0.73 0.82 0.83 0.85 0.90 0.92 0.95 1.02 1.04 1.19 1.30 1.28 1.24 1.32 1.34 1.32 1.39 1.32 1.21 1.10 0.99 0.93 1.00 1.05 1.12 1.07 1.03 1.06 1.12 1.13 1.15 1.20 1.22 1.22 1.18 1.15 1.13
0.51 0.59 0.58 0.57 0.59 0.64 0.64 0.69 0.80 0.87 0.92 0.90 0.94 0.96 0.99 1.05 1.09 1.23 1.24 1.30 1.37 1.40 1.44 1.41 1.36 1.30 1.13 1.11 0.98 1.06 1.11 1.12 1.05 1.04 1.08 1.14 1.18 1.18 1.17 1.21 1.21 1.18 1.23 1.15
0.60 0.53 0.50 0.48 0.60 0.58 0.63 0.73 0.85 0.87 0.89 0.95 0.87 0.90 0.97 1.04 1.10 1.23 1.28 1.34 1.39 1.35 1.41 1.40 1.34 1.27 1.17 1.18 1.07 1.10 1.21 1.20 1.07 1.03 1.09 1.15 1.17 1.18 1.21 1.20 1.15 1.22 1.20 1.20
Wind_Speed
1 0 2 3 2 3 3 1 1 1 2 3 3 3 6 7 6 8 9 10 12 13 13 14 15 15 14 13 11 10 8 8 8 7 6 4 4 4 3 2 2 2 2 2
4 3 2 4 4 3 2 1 1 1 1 3 3 3 6 8 7 8 10 12 12 12 13 14 14 14 13 12 11 10 9 8 9 8 7 5 4 3 3 2 2 2 2 2
6 4 2 3 5 2 2 3 0 1 4 3 2 3 5 8 7 8 8 10 11 12 13 13 14 14 13 12 11 10 9 9 9 8 7 6 5 4 3 2 1 2 2 3
7 3 2 3 5 2 3 1 1 3 4 1 0 1 4 8 10 10 11 11 12 13 13 12 12 13 13 12 10 10 10 9 8 8 8 7 6 5 3 2 3 3 3 4
6 5 4 5 3 1 4 3 4 4 4 3 2 2 2 4 8 13 14 13 13 13 13 13 13 13 13 11 10 9 8 8 9 9 8 8 7 6 4 3 3 3 4 4
12 7 5 2 2 2 5 6 6 5 3 2 4 1 1 3 7 10 13 15 15 14 13 13 14 13 13 11 10 9 9 8 8 9 9 8 8 7 6 5 5 5 5 5
10 9 6 5 2 2 0 1 1 2 3 3 4 1 1 2 2 4 11 14 16 17 15 13 14 15 14 12 11 10 9 8 8 8 8 9 8 8 8 7 6 6 6 6
8 8 8 7 5 4 3 1 0 1 1 1 2 0 2 1 2 1 4 10 15 17 17 17 15 16 15 14 12 11 10 9 9 9 9 9 9 9 9 8 8 7 7 7
10 10 7 9 6 5 4 4 1 0 2 0 1 3 2 1 1 1 2 4 13 15 17 18 17 17 16 14 13 12 11 11 11 11 10 10 10 10 10 9 9 8 9 9
11 12 9 8 6 4 6 6 4 1 1 2 1 2 3 2 1 1 2 2 6 11 15 15 17 18 17 15 13 12 12 12 12 13 13 12 11 11 10 10 9 9 10 10
12 13 11 10 10 8 6 6 5 4 3 2 3 3 2 0 2 2 2 2 1 8 13 14 15 15 16 16 14 12 12 12 12 12 13 13 12 11 11 10 10 11 12 12
15 13 17 18 12 9 9 8 8 7 5 3 3 3 3 1 2 2 2 2 2 3 9 13 15 14 16 15 13 12 11 12 11 11 11 11 11 12 11 12 12 12 13 13
13 14 14 14 13 11 11 10 9 7 6 7 5 5 4 3 2 2 1 2 3 5 7 10 11 12 14 14 13 12 10 11 12 11 11 11 12 12 12 13 13 13 13 13
13 12 16 19 14 9 10 11 13 15 12 10 11 9 7 5 3 2 2 3 4 5 7 8 9 10 10 9 9 9 9 11 12 13 13 13 13 13 13 13 13 13 14 15
12 14 16 19 16 14 12 12 13 15 14 14 12 10 7 8 5 4 4 4 5 6 6 7 8 8 8 8 8 9 10 10 12 13 14 14 13 13 14 13 14 14 16 17
11 8 12 15 15 16 16 14 15 16 15 17 18 18 12 9 7 6 6 6 7 6 6 6 5 5 6 7 8 9 9 9 9 11 11 12 11 11 11 12 12 13 14 13
11 12 11 13 13 13 15 18 18 17 16 15 16 13 10 11 12 10 9 8 8 7 6 5 4 3 4 5 6 7 8 8 9 9 9 9 9 9 8 8 8 9 9 9
13 12 13 12 12 16 14 13 15 19 20 18 17 13 14 14 13 11 11 10 9 8 6 4 3 2 3 3 3 4 5 6 6 7 7 7 6 6 6 5 5 5 6 6
17 15 14 14 16 14 15 15 15 15 17 18 18 14 14 15 12 10 12 12 11 9 6 4 3 2 3 2 2 2 2 2 3 3 3 4 4 3 3 2 2 2 3 4
17 18 17 14 18 19 17 15 14 12 16 14 16 16 17 17 13 12 13 13 11 10 7 5 3 2 3 2 2 2 2 3 3 3 3 4 3 3 3 4 5 4 5 6
14 17 21 18 15 14 13 11 12 11 8 14 17 17 18 16 11 13 14 14 12 11 9 6 5 3 3 3 3 4 6 6 8 9 9 9 8 8 7 6 6 5 6 7
18 17 18 17 17 15 9 10 13 10 10 13 15 17 16 12 11 15 16 15 14 11 10 8 6 4 3 4 5 6 8 8 8 8 8 8 8 7 6 6 5 5 6 6
19 20 17 20 18 14 15 12 11 10 12 12 14 16 16 14 13 16 17 16 14 13 12 10 8 5 5 5 6 8 8 8 8 8 8 7 6 5 5 5 5 5 5 6
20 18 19 18 21 19 16 16 13 12 10 12 14 15 16 14 15 17 18 17 15 14 15 13 11 6 5 6 7 8 8 8 7 7 6 5 5 4 4 4 5 5 6 6
19 19 18 19 20 17 18 19 17 15 12 12 13 14 16 16 16 18 19 18 15 15 16 14 11 9 7 7 7 9 8 7 6 6 5 5 4 3 3 3 3 4 6 6
21 20 19 18 20 19 17 18 19 19 17 16 14 15 14 15 17 19 20 19 16 16 16 14 12 10 9 8 7 9 9 8 7 6 6 5 3 2 1 1 2 3 5 6
Wind_Direction
204 352 26 2 352 28 25 71 27 8 192 215 210 185 167 156 155 163 172 171 172 170 166 165 169 173 177 181 187 192 199 202 198 198 202 208 211 208 217 232 272 299 323 307
205 255 305 344 353 311 295 327 350 54 175 187 186 203 184 177 174 170 171 177 179 182 181 181 181 183 187 193 201 205 206 206 202 202 204 200 194 203 212 241 281 266 281 299
227 273 312 326 352 350 293 259 44 11 151 139 179 191 187 198 191 187 185 184 187 189 189 188 192 194 197 200 201 203 204 202 202 205 202 200 203 208 216 234 268 275 266 282
229 241 276 333 348 1 355 48 172 131 167 140 83 159 204 204 209 206 201 196 195 194 195 195 197 197 198 201 205 205 206 203 204 203 203 205 209 216 223 251 267 281 276 273
221 256 293 311 4 59 20 15 113 98 115 115 121 157 126 188 216 216 210 206 202 199 199 201 201 198 197 200 198 199 197 201 204 202 206 209 217 225 238 251 267 287 286 279
241 243 254 220 26 112 91 85 88 92 103 114 98 84 112 156 217 214 217 213 209 206 204 205 205 202 201 196 199 196 196 198 199 201 208 214 222 231 240 251 268 276 285 280
236 237 231 214 161 177 62 108 73 106 101 81 98 76 317 198 177 213 213 216 215 212 210 207 205 201 199 199 199 197 197 205 208 211 216 224 231 236 244 253 263 273 278 280
225 219 207 201 218 213 201 200 52 3 40 334 99 296 49 149 86 310 244 227 220 218 216 214 209 206 205 206 206 209 212 219 221 224 228 235 239 245 252 256 263 271 276 279
213 221 223 214 208 223 195 212 162 171 126 175 105 354 304 270 297 1 326 233 215 214 211 212 212 210 209 209 214 217 222 230 232 235 237 241 247 250 254 258 263 271 276 280
220 230 224 213 211 210 229 184 197 208 275 345 327 349 35 102 126 82 43 2 207 209 210 212 214 213 213 214 217 223 230 240 245 243 242 244 248 252 254 258 264 272 277 280
214 225 217 221 219 227 210 220 227 234 239 235 323 5 15 142 39 34 35 30 229 209 208 209 207 205 211 209 214 227 237 247 249 246 243 243 245 250 253 258 267 274 280 282
220 228 234 238 232 237 238 239 235 232 212 226 288 299 345 295 345 9 16 41 77 178 193 197 203 207 206 210 219 236 248 250 245 243 238 239 243 249 255 263 271 278 282 286
213 226 229 227 224 230 235 231 231 225 229 238 267 285 313 279 277 313 76 106 105 131 159 180 191 200 204 216 231 241 247 249 244 241 242 246 249 254 259 268 274 280 286 292
221 226 225 224 229 232 235 241 237 238 239 246 252 279 280 240 233 208 137 111 138 134 147 161 178 185 198 213 220 236 251 254 248 244 247 250 250 258 262 269 275 281 284 291
218 239 225 226 233 243 253 244 230 234 240 242 261 260 269 230 217 192 171 146 140 144 148 164 177 191 204 219 234 244 258 258 249 247 251 264 265 263 265 266 271 282 289 297
219 235 226 232 231 241 247 245 242 242 244 250 253 261 249 223 216 195 184 173 163 156 161 167 179 196 214 234 247 254 256 259 256 251 255 258 259 262 267 269 272 286 297 309
225 229 234 237 228 233 245 243 240 245 244 250 243 248 225 215 211 198 188 184 174 172 166 169 177 204 241 250 258 258 258 256 256 256 255 254 256 262 267 271 282 294 302 313
228 228 236 241 228 238 248 251 249 247 252 245 244 242 228 211 205 205 202 195 191 185 180 181 202 222 238 232 248 258 259 255 250 247 246 247 247 255 264 275 289 303 317 330
237 234 237 236 237 256 249 245 243 244 259 237 236 228 208 195 194 210 208 201 198 193 195 205 222 215 196 210 242 254 239 231 226 220 220 223 225 233 246 266 311 341 19 22
234 240 235 237 242 248 253 242 238 249 259 226 208 200 192 192 208 216 204 199 198 196 199 198 195 185 181 190 170 145 131 124 123 130 137 137 139 132 117 105 96 79 55 37
236 231 231 233 243 254 250 230 220 233 247 201 196 196 198 209 229 204 199 196 198 200 199 194 192 172 163 159 146 136 128 119 116 111 110 111 108 107 103 96 86 72 50 40
234 229 230 229 233 241 220 202 226 241 202 195 205 208 210 211 210 195 195 194 196 200 197 196 188 177 165 154 144 141 135 131 124 117 116 112 108 103 99 93 77 62 48 41
238 230 233 231 225 229 223 239 226 221 213 218 215 207 205 204 203 198 198 198 202 199 195 193 186 178 171 163 159 154 147 142 134 127 124 116 110 103 96 85 66 51 44 36
235 228 232 227 226 228 228 231 227 223 217 217 206 203 206 209 211 204 201 202 204 205 201 196 189 185 175 170 169 166 160 155 148 143 137 128 116 105 91 77 58 53 41 36
232 218 223 227 231 229 232 231 224 215 212 209 208 212 213 216 213 206 203 202 202 198 192 193 198 191 184 176 173 175 171 166 161 156 153 144 130 117 92 69 52 40 28 26
223 222 222 225 223 227 230 224 217 216 217 213 213 216 223 220 211 206 202 197 195 189 185 187 188 189 184 179 174 177 177 175 172 167 165 162 156 148 125 35 24 21 15 16